Time,TemperatureF,DewpointF,PressureIn,WindDirection,WindDirectionDegrees,WindSpeedMPH,WindSpeedGustMPH,Humidity,HourlyPrecipIn,Conditions,Clouds,dailyrainin,SoftwareType,DateUTC
2013-04-30 00:01:00,60.3,54.8,29.91,South,191,3.0,7.0,82,0.00,,---,0.01,VWS V14.01,2013-04-30 04:01:00,
2013-04-30 00:02:00,60.3,54.8,29.91,SSE,153,3.0,3.0,82,0.00,,---,0.00,VWS V14.01,2013-04-30 04:02:00,
2013-04-30 00:07:00,60.2,54.7,29.91,SSE,155,5.0,6.0,82,0.00,,---,0.00,VWS V14.01,2013-04-30 04:07:00,
2013-04-30 00:12:00,60.1,54.6,29.91,SSE,167,3.0,6.0,82,0.00,,---,0.00,VWS V14.01,2013-04-30 04:12:00,
2013-04-30 00:17:00,60.2,54.7,29.91,SSW,194,4.0,6.0,82,0.00,,---,0.00,VWS V14.01,2013-04-30 04:17:00,
2013-04-30 00:22:00,60.2,54.7,29.91,SSE,159,4.0,6.0,82,0.00,,---,0.00,VWS V14.01,2013-04-30 04:22:00,
2013-04-30 00:28:00,60.3,54.8,29.91,South,184,4.0,7.0,82,0.00,,---,0.00,VWS V14.01,2013-04-30 04:28:00,
2013-04-30 00:33:00,60.3,54.8,29.91,South,187,4.0,7.0,82,0.00,,---,0.00,VWS V14.01,2013-04-30 04:33:00,
2013-04-30 00:38:00,60.4,54.9,29.91,South,186,5.0,7.0,82,0.00,,---,0.00,VWS V14.01,2013-04-30 04:38:00,
2013-04-30 00:43:00,60.4,54.9,29.91,SSW,207,5.0,7.0,82,0.00,,---,0.00,VWS V14.01,2013-04-30 04:43:00,
2013-04-30 00:48:00,60.4,54.9,29.91,SSW,198,5.0,7.0,82,0.00,,---,0.00,VWS V14.01,2013-04-30 04:48:00,
2013-04-30 00:53:00,60.5,55.0,29.91,SW,215,4.0,8.0,82,0.00,,---,0.00,VWS V14.01,2013-04-30 04:53:00,
2013-04-30 00:58:00,60.5,55.0,29.91,South,186,8.0,8.0,82,0.00,,---,0.00,VWS V14.01,2013-04-30 04:58:00,
2013-04-30 01:03:00,60.5,55.0,29.91,SSW,212,6.0,9.0,82,0.00,,---,0.00,VWS V14.01,2013-04-30 05:03:00,
2013-04-30 01:08:00,60.4,54.9,29.92,SW,225,4.0,9.0,82,0.00,,---,0.00,VWS V14.01,2013-04-30 05:08:00,
2013-04-30 01:13:00,60.2,55.0,29.92,SW,218,5.0,9.0,83,0.00,,---,0.00,VWS V14.01,2013-04-30 05:13:00,
2013-04-30 01:19:00,60.1,54.9,29.92,SSW,208,5.0,9.0,83,0.00,,---,0.00,VWS V14.01,2013-04-30 05:19:00,
2013-04-30 01:24:00,60.0,54.8,29.92,SSW,204,4.0,9.0,83,0.00,,---,0.00,VWS V14.01,2013-04-30 05:24:00,
2013-04-30 01:29:00,59.9,54.7,29.92,SSW,203,3.0,9.0,83,0.00,,---,0.00,VWS V14.01,2013-04-30 05:29:00,
2013-04-30 01:34:00,59.9,54.7,29.93,South,184,4.0,9.0,83,0.00,,---,0.00,VWS V14.01,2013-04-30 05:34:00,
2013-04-30 01:39:00,59.8,55.0,29.93,SSE,159,3.0,9.0,84,0.00,,---,0.00,VWS V14.01,2013-04-30 05:39:00,
2013-04-30 01:44:00,59.6,54.8,29.92,SSE,152,6.0,9.0,84,0.00,,---,0.00,VWS V14.01,2013-04-30 05:44:00,
2013-04-30 01:49:00,59.5,54.7,29.92,SSE,159,4.0,10.0,84,0.00,,---,0.00,VWS V14.01,2013-04-30 05:49:00,
2013-04-30 01:54:00,59.5,54.7,29.92,SSE,162,2.0,10.0,84,0.00,,---,0.00,VWS V14.01,2013-04-30 05:54:00,
2013-04-30 01:59:00,59.3,54.5,29.92,SSE,160,2.0,10.0,84,0.00,,---,0.00,VWS V14.01,2013-04-30 05:59:00,
2013-04-30 02:05:00,59.1,54.6,29.93,SSW,203,3.0,5.0,85,0.00,,---,0.00,VWS V14.01,2013-04-30 06:05:00,
2013-04-30 02:10:00,59.0,54.5,29.93,SSE,158,3.0,5.0,85,0.00,,---,0.00,VWS V14.01,2013-04-30 06:10:00,
2013-04-30 02:15:00,58.9,54.4,29.93,SSE,155,1.0,5.0,85,0.00,,---,0.00,VWS V14.01,2013-04-30 06:15:00,
2013-04-30 02:20:00,58.7,54.2,29.93,SSE,158,3.0,5.0,85,0.00,,---,0.00,VWS V14.01,2013-04-30 06:20:00,
2013-04-30 02:25:00,58.6,54.4,29.93,SE,139,3.0,5.0,86,0.00,,---,0.00,VWS V14.01,2013-04-30 06:25:00,
2013-04-30 02:30:00,58.6,54.4,29.93,SE,128,4.0,5.0,86,0.00,,---,0.00,VWS V14.01,2013-04-30 06:30:00,
2013-04-30 02:35:00,58.5,54.3,29.93,South,169,3.0,5.0,86,0.00,,---,0.00,VWS V14.01,2013-04-30 06:35:00,
2013-04-30 02:40:00,58.4,54.2,29.93,SSE,153,3.0,5.0,86,0.00,,---,0.00,VWS V14.01,2013-04-30 06:40:00,
2013-04-30 02:45:00,58.3,54.1,29.93,SSE,155,2.0,5.0,86,0.00,,---,0.00,VWS V14.01,2013-04-30 06:45:00,
2013-04-30 02:50:00,58.2,54.0,29.93,SSE,166,4.0,5.0,86,0.00,,---,0.00,VWS V14.01,2013-04-30 06:50:00,
2013-04-30 02:55:00,58.0,54.2,29.93,South,186,4.0,5.0,87,0.00,,---,0.00,VWS V14.01,2013-04-30 06:55:00,
2013-04-30 03:00:00,57.9,54.1,29.92,SSW,193,4.0,6.0,87,0.00,,---,0.00,VWS V14.01,2013-04-30 07:00:00,
2013-04-30 03:05:00,57.8,54.0,29.92,SSE,153,3.0,5.0,87,0.00,,---,0.00,VWS V14.01,2013-04-30 07:05:00,
2013-04-30 03:11:00,57.7,53.9,29.92,SE,136,5.0,5.0,87,0.00,,---,0.00,VWS V14.01,2013-04-30 07:11:00,
2013-04-30 03:16:00,57.6,53.8,29.92,SSE,153,4.0,6.0,87,0.00,,---,0.00,VWS V14.01,2013-04-30 07:16:00,
2013-04-30 03:21:00,57.5,53.7,29.92,SSE,153,4.0,6.0,87,0.00,,---,0.00,VWS V14.01,2013-04-30 07:21:00,
2013-04-30 03:26:00,57.4,53.9,29.92,South,169,3.0,6.0,88,0.00,,---,0.00,VWS V14.01,2013-04-30 07:26:00,
2013-04-30 03:31:00,57.2,53.7,29.93,South,174,5.0,6.0,88,0.00,,---,0.00,VWS V14.01,2013-04-30 07:31:00,
2013-04-30 03:36:00,57.2,53.7,29.93,SSE,166,3.0,7.0,88,0.00,,---,0.00,VWS V14.01,2013-04-30 07:36:00,
2013-04-30 03:42:00,57.0,53.5,29.94,South,178,4.0,7.0,88,0.00,,---,0.00,VWS V14.01,2013-04-30 07:42:00,
2013-04-30 03:47:00,56.8,53.6,29.94,SSE,164,3.0,7.0,89,0.00,,---,0.00,VWS V14.01,2013-04-30 07:47:00,
2013-04-30 03:52:00,56.7,53.5,29.94,SSE,166,4.0,7.0,89,0.00,,---,0.00,VWS V14.01,2013-04-30 07:52:00,
2013-04-30 03:57:00,56.5,53.3,29.94,SSE,162,3.0,7.0,89,0.00,,---,0.00,VWS V14.01,2013-04-30 07:57:00,
2013-04-30 04:02:00,56.3,53.1,29.94,SSE,165,4.0,4.0,89,0.00,,---,0.00,VWS V14.01,2013-04-30 08:02:00,
2013-04-30 04:07:00,56.2,53.0,29.94,SSE,156,4.0,4.0,89,0.00,,---,0.00,VWS V14.01,2013-04-30 08:07:00,
2013-04-30 04:12:00,56.1,52.9,29.94,South,176,3.0,6.0,89,0.00,,---,0.00,VWS V14.01,2013-04-30 08:12:00,
2013-04-30 04:17:00,56.0,53.1,29.94,SSE,152,4.0,7.0,90,0.00,,---,0.00,VWS V14.01,2013-04-30 08:17:00,
2013-04-30 04:22:00,55.9,52.7,29.94,SSE,162,4.0,7.0,89,0.00,,---,0.00,VWS V14.01,2013-04-30 08:22:00,
2013-04-30 04:27:00,55.9,53.0,29.94,SSE,160,5.0,7.0,90,0.00,,---,0.00,VWS V14.01,2013-04-30 08:27:00,
2013-04-30 04:33:00,55.8,52.9,29.94,South,172,3.0,7.0,90,0.00,,---,0.00,VWS V14.01,2013-04-30 08:33:00,
2013-04-30 04:38:00,55.7,52.8,29.94,SSE,162,2.0,7.0,90,0.00,,---,0.00,VWS V14.01,2013-04-30 08:38:00,
2013-04-30 04:43:00,55.6,52.7,29.94,SE,146,3.0,7.0,90,0.00,,---,0.00,VWS V14.01,2013-04-30 08:43:00,
2013-04-30 04:48:00,55.4,52.5,29.94,SSE,148,2.0,7.0,90,0.00,,---,0.00,VWS V14.01,2013-04-30 08:48:00,
2013-04-30 04:53:00,55.2,52.3,29.94,SE,141,2.0,7.0,90,0.00,,---,0.00,VWS V14.01,2013-04-30 08:53:00,
2013-04-30 04:58:00,55.0,52.4,29.94,SE,127,4.0,7.0,91,0.00,,---,0.00,VWS V14.01,2013-04-30 08:58:00,
2013-04-30 05:03:00,54.9,52.3,29.94,SE,132,4.0,4.0,91,0.00,,---,0.00,VWS V14.01,2013-04-30 09:03:00,
2013-04-30 05:08:00,54.9,52.3,29.94,SE,146,4.0,5.0,91,0.00,,---,0.00,VWS V14.01,2013-04-30 09:08:00,
2013-04-30 05:13:00,54.9,52.3,29.94,SE,129,3.0,6.0,91,0.00,,---,0.00,VWS V14.01,2013-04-30 09:13:00,
2013-04-30 05:18:00,54.8,52.2,29.94,SE,136,2.0,6.0,91,0.00,,---,0.00,VWS V14.01,2013-04-30 09:18:00,
2013-04-30 05:23:00,54.8,52.5,29.94,SE,138,4.0,7.0,92,0.00,,---,0.00,VWS V14.01,2013-04-30 09:23:00,
2013-04-30 05:29:00,54.8,52.5,29.94,SSE,150,4.0,7.0,92,0.00,,---,0.00,VWS V14.01,2013-04-30 09:29:00,
2013-04-30 05:34:00,54.7,52.4,29.93,SE,131,4.0,7.0,92,0.00,,---,0.00,VWS V14.01,2013-04-30 09:34:00,
2013-04-30 05:39:00,54.7,52.4,29.93,SSE,149,5.0,7.0,92,0.00,,---,0.00,VWS V14.01,2013-04-30 09:39:00,
2013-04-30 05:44:00,54.7,52.4,29.93,SSE,152,2.0,10.0,92,0.00,,---,0.00,VWS V14.01,2013-04-30 09:44:00,
2013-04-30 05:49:00,54.7,52.4,29.94,SE,132,2.0,10.0,92,0.00,,---,0.00,VWS V14.01,2013-04-30 09:49:00,
2013-04-30 05:54:00,54.6,52.3,29.93,SSE,163,5.0,10.0,92,0.00,,---,0.00,VWS V14.01,2013-04-30 09:54:00,
2013-04-30 05:59:00,54.6,52.3,29.93,SSE,165,3.0,10.0,92,0.00,,---,0.00,VWS V14.01,2013-04-30 09:59:00,
2013-04-30 06:04:00,54.6,52.3,29.93,South,169,3.0,11.0,92,0.00,,---,0.00,VWS V14.01,2013-04-30 10:04:00,
2013-04-30 06:09:00,54.6,52.3,29.93,SSW,207,6.0,11.0,92,0.00,,---,0.00,VWS V14.01,2013-04-30 10:09:00,
2013-04-30 06:14:00,54.5,52.2,29.93,SE,146,5.0,11.0,92,0.00,,---,0.00,VWS V14.01,2013-04-30 10:14:00,
2013-04-30 06:20:00,54.5,52.2,29.93,SSE,160,4.0,11.0,92,0.00,,---,0.00,VWS V14.01,2013-04-30 10:20:00,
2013-04-30 06:25:00,54.5,52.2,29.93,SSE,150,5.0,11.0,92,0.00,,---,0.00,VWS V14.01,2013-04-30 10:25:00,
2013-04-30 06:30:00,54.5,52.2,29.93,SSE,166,6.0,11.0,92,0.00,,---,0.00,VWS V14.01,2013-04-30 10:30:00,
2013-04-30 06:35:00,54.5,52.2,29.93,SSE,160,8.0,11.0,92,0.00,,---,0.00,VWS V14.01,2013-04-30 10:35:00,
2013-04-30 06:40:00,54.5,52.2,29.93,South,191,9.0,11.0,92,0.00,,---,0.00,VWS V14.01,2013-04-30 10:40:00,
2013-04-30 06:45:00,54.5,52.2,29.93,SE,141,5.0,11.0,92,0.00,,---,0.00,VWS V14.01,2013-04-30 10:45:00,
2013-04-30 06:50:00,54.3,52.0,29.94,South,169,4.0,11.0,92,0.00,,---,0.00,VWS V14.01,2013-04-30 10:50:00,
2013-04-30 06:55:00,54.3,52.0,29.94,South,172,5.0,11.0,92,0.00,,---,0.00,VWS V14.01,2013-04-30 10:55:00,
2013-04-30 07:00:00,54.4,52.1,29.95,South,174,5.0,11.0,92,0.00,,---,0.00,VWS V14.01,2013-04-30 11:00:00,
2013-04-30 07:05:00,54.6,52.3,29.95,South,173,6.0,8.0,92,0.00,,---,0.00,VWS V14.01,2013-04-30 11:05:00,
2013-04-30 07:10:00,54.8,52.5,29.96,SSW,194,5.0,8.0,92,0.00,,---,0.00,VWS V14.01,2013-04-30 11:10:00,
2013-04-30 07:16:00,55.1,52.5,29.97,South,174,9.0,9.0,91,0.00,,---,0.00,VWS V14.01,2013-04-30 11:16:00,
2013-04-30 07:21:00,55.3,52.7,29.97,SSW,198,5.0,9.0,91,0.00,,---,0.00,VWS V14.01,2013-04-30 11:21:00,
2013-04-30 07:26:00,55.3,52.7,29.97,South,170,5.0,11.0,91,0.00,,---,0.00,VWS V14.01,2013-04-30 11:26:00,
2013-04-30 07:31:00,55.3,52.7,29.97,SSE,156,8.0,11.0,91,0.00,,---,0.00,VWS V14.01,2013-04-30 11:31:00,
2013-04-30 07:36:00,55.3,52.7,29.97,SSW,192,9.0,11.0,91,0.00,,---,0.00,VWS V14.01,2013-04-30 11:36:00,
2013-04-30 07:41:00,55.4,52.8,29.97,SSE,153,7.0,11.0,91,0.00,,---,0.00,VWS V14.01,2013-04-30 11:41:00,
2013-04-30 07:46:00,55.4,52.8,29.97,SSE,167,6.0,11.0,91,0.00,,---,0.00,VWS V14.01,2013-04-30 11:46:00,
2013-04-30 07:51:00,55.6,52.7,29.96,SSW,208,8.0,12.0,90,0.00,,---,0.00,VWS V14.01,2013-04-30 11:51:00,
2013-04-30 07:56:00,55.9,53.0,29.97,SSW,195,9.0,12.0,90,0.00,,---,0.00,VWS V14.01,2013-04-30 11:56:00,
2013-04-30 08:02:00,56.3,53.1,29.96,South,183,5.0,12.0,89,0.00,,---,0.00,VWS V14.01,2013-04-30 12:02:00,
2013-04-30 08:07:00,56.4,53.2,29.97,SSW,200,12.0,12.0,89,0.00,,---,0.00,VWS V14.01,2013-04-30 12:07:00,
2013-04-30 08:12:00,56.7,53.5,29.98,SSW,194,5.0,12.0,89,0.00,,---,0.00,VWS V14.01,2013-04-30 12:12:00,
2013-04-30 08:17:00,57.0,53.5,29.98,SSW,200,7.0,12.0,88,0.00,,---,0.00,VWS V14.01,2013-04-30 12:17:00,
2013-04-30 08:22:00,57.5,54.0,29.98,SSW,193,6.0,12.0,88,0.00,,---,0.00,VWS V14.01,2013-04-30 12:22:00,
2013-04-30 08:27:00,57.8,54.0,29.97,SE,143,3.0,12.0,87,0.00,,---,0.00,VWS V14.01,2013-04-30 12:27:00,
2013-04-30 08:32:00,58.1,53.9,29.98,South,191,7.0,12.0,86,0.00,,---,0.00,VWS V14.01,2013-04-30 12:32:00,
2013-04-30 08:37:00,58.3,54.1,29.99,SSW,192,8.0,12.0,86,0.00,,---,0.00,VWS V14.01,2013-04-30 12:37:00,
2013-04-30 08:42:00,58.4,53.9,29.99,SSW,211,9.0,12.0,85,0.00,,---,0.00,VWS V14.01,2013-04-30 12:42:00,
2013-04-30 08:47:00,58.4,53.9,30.00,SSW,212,5.0,12.0,85,0.00,,---,0.00,VWS V14.01,2013-04-30 12:47:00,
2013-04-30 08:52:00,58.5,53.7,30.00,SSW,207,4.0,12.0,84,0.00,,---,0.00,VWS V14.01,2013-04-30 12:52:00,
2013-04-30 08:58:00,58.6,53.8,30.01,SSW,204,4.0,12.0,84,0.00,,---,0.00,VWS V14.01,2013-04-30 12:58:00,
2013-04-30 09:03:00,58.7,53.9,30.01,SSW,194,4.0,7.0,84,0.00,,---,0.00,VWS V14.01,2013-04-30 13:03:00,
2013-04-30 09:08:00,58.8,53.7,30.01,SE,141,6.0,8.0,83,0.00,,---,0.00,VWS V14.01,2013-04-30 13:08:00,
2013-04-30 09:13:00,59.1,54.0,30.00,SSW,193,5.0,8.0,83,0.00,,---,0.00,VWS V14.01,2013-04-30 13:13:00,
2013-04-30 09:18:00,59.3,53.8,30.01,SSW,208,6.0,8.0,82,0.00,,---,0.00,VWS V14.01,2013-04-30 13:18:00,
2013-04-30 09:23:00,59.4,54.2,30.01,SSE,165,7.0,8.0,83,0.00,,---,0.00,VWS V14.01,2013-04-30 13:23:00,
2013-04-30 09:28:00,59.4,53.9,30.01,South,174,6.0,8.0,82,0.00,,---,0.00,VWS V14.01,2013-04-30 13:28:00,
2013-04-30 09:33:00,59.6,54.1,30.00,South,177,12.0,12.0,82,0.00,,---,0.00,VWS V14.01,2013-04-30 13:33:00,
2013-04-30 09:38:00,59.7,53.9,30.00,SSE,156,8.0,12.0,81,0.00,,---,0.00,VWS V14.01,2013-04-30 13:38:00,
2013-04-30 09:43:00,59.8,54.0,30.00,SSE,149,7.0,12.0,81,0.00,,---,0.00,VWS V14.01,2013-04-30 13:43:00,
2013-04-30 09:48:00,59.8,54.0,30.01,South,191,6.0,12.0,81,0.00,,---,0.00,VWS V14.01,2013-04-30 13:48:00,
2013-04-30 09:53:00,59.7,53.9,30.01,SSW,200,5.0,12.0,81,0.00,,---,0.00,VWS V14.01,2013-04-30 13:53:00,
2013-04-30 09:59:00,59.7,53.9,30.02,South,174,6.0,12.0,81,0.00,,---,0.00,VWS V14.01,2013-04-30 13:59:00,
2013-04-30 10:04:00,59.7,53.9,30.02,SSW,212,6.0,10.0,81,0.00,,---,0.00,VWS V14.01,2013-04-30 14:04:00,
2013-04-30 10:09:00,59.7,53.9,30.02,SW,219,6.0,10.0,81,0.00,,---,0.00,VWS V14.01,2013-04-30 14:09:00,
2013-04-30 10:14:00,59.4,53.9,30.02,SW,236,4.0,10.0,82,0.00,,---,0.00,VWS V14.01,2013-04-30 14:14:00,
2013-04-30 10:19:00,59.2,53.7,30.02,SSW,212,5.0,10.0,82,0.01,,---,0.01,VWS V14.01,2013-04-30 14:19:00,
2013-04-30 10:24:00,59.0,53.8,30.02,South,191,5.0,10.0,83,0.01,,---,0.01,VWS V14.01,2013-04-30 14:24:00,
2013-04-30 10:29:00,58.6,54.1,30.03,South,188,7.0,10.0,85,0.02,,---,0.02,VWS V14.01,2013-04-30 14:29:00,
2013-04-30 10:34:00,58.3,54.1,30.01,ESE,110,4.0,10.0,86,0.03,,---,0.03,VWS V14.01,2013-04-30 14:34:00,
2013-04-30 10:39:00,57.9,54.1,30.00,ESE,114,3.0,10.0,87,0.04,,---,0.04,VWS V14.01,2013-04-30 14:39:00,
2013-04-30 10:44:00,57.8,54.3,30.00,SE,136,4.0,10.0,88,0.05,,---,0.05,VWS V14.01,2013-04-30 14:44:00,
2013-04-30 10:49:00,57.6,54.1,30.01,SE,136,4.0,10.0,88,0.07,,---,0.07,VWS V14.01,2013-04-30 14:49:00,
2013-04-30 10:54:00,57.5,54.0,30.01,SSW,195,3.0,10.0,88,0.08,,---,0.08,VWS V14.01,2013-04-30 14:54:00,
2013-04-30 10:59:00,57.5,54.0,30.02,SSW,194,2.0,10.0,88,0.08,,---,0.08,VWS V14.01,2013-04-30 14:59:00,
2013-04-30 11:05:00,57.4,54.2,30.03,SSW,212,4.0,4.0,89,0.08,,---,0.08,VWS V14.01,2013-04-30 15:05:00,
2013-04-30 11:10:00,57.3,54.1,30.03,South,187,2.0,5.0,89,0.09,,---,0.09,VWS V14.01,2013-04-30 15:10:00,
2013-04-30 11:15:00,57.2,54.3,30.03,ESE,114,3.0,5.0,90,0.09,,---,0.09,VWS V14.01,2013-04-30 15:15:00,
2013-04-30 11:20:00,57.2,54.3,30.03,SE,146,5.0,5.0,90,0.10,,---,0.10,VWS V14.01,2013-04-30 15:20:00,
2013-04-30 11:25:00,57.2,54.0,30.04,SSE,149,3.0,5.0,89,0.12,,---,0.12,VWS V14.01,2013-04-30 15:25:00,
2013-04-30 11:30:00,57.1,54.2,30.04,South,184,3.0,6.0,90,0.13,,---,0.13,VWS V14.01,2013-04-30 15:30:00,
2013-04-30 11:35:00,57.1,54.2,30.04,ESE,117,3.0,6.0,90,0.15,,---,0.15,VWS V14.01,2013-04-30 15:35:00,
2013-04-30 11:40:00,57.0,54.1,30.04,SE,126,2.0,6.0,90,0.16,,---,0.16,VWS V14.01,2013-04-30 15:40:00,
2013-04-30 11:45:00,57.0,54.1,30.04,ESE,108,3.0,7.0,90,0.18,,---,0.18,VWS V14.01,2013-04-30 15:45:00,
2013-04-30 11:50:00,57.1,54.2,30.03,ESE,121,6.0,7.0,90,0.19,,---,0.19,VWS V14.01,2013-04-30 15:50:00,
2013-04-30 11:55:00,57.0,54.4,30.03,South,174,11.0,15.0,91,0.20,,---,0.20,VWS V14.01,2013-04-30 15:55:00,
2013-04-30 12:00:00,57.0,54.4,30.03,SSW,200,5.0,15.0,91,0.23,,---,0.23,VWS V14.01,2013-04-30 16:00:00,
2013-04-30 12:06:00,57.1,54.5,30.03,ESE,117,4.0,6.0,91,0.17,,---,0.25,VWS V14.01,2013-04-30 16:06:00,
2013-04-30 12:11:00,57.2,54.6,30.02,East,101,3.0,10.0,91,0.19,,---,0.27,VWS V14.01,2013-04-30 16:11:00,
2013-04-30 12:16:00,57.2,54.3,30.00,SE,126,13.0,15.0,90,0.20,,---,0.28,VWS V14.01,2013-04-30 16:16:00,
2013-04-30 12:21:00,57.2,54.6,29.98,SE,138,10.0,17.0,91,0.20,,---,0.28,VWS V14.01,2013-04-30 16:21:00,
2013-04-30 12:26:00,57.2,54.6,29.97,SE,124,6.0,18.0,91,0.21,,---,0.29,VWS V14.01,2013-04-30 16:26:00,
2013-04-30 12:31:00,57.0,55.0,29.96,SE,145,8.0,21.0,93,0.21,,---,0.29,VWS V14.01,2013-04-30 16:31:00,
2013-04-30 12:36:00,56.7,55.3,29.95,East,94,12.0,21.0,95,0.21,,---,0.29,VWS V14.01,2013-04-30 16:36:00,
2013-04-30 12:41:00,56.8,55.7,29.94,SSE,150,9.0,24.0,96,0.22,,---,0.30,VWS V14.01,2013-04-30 16:41:00,
2013-04-30 12:46:00,56.8,55.7,29.96,SW,236,8.0,24.0,96,0.22,,---,0.30,VWS V14.01,2013-04-30 16:46:00,
2013-04-30 12:51:00,56.8,55.7,29.98,WSW,249,10.0,24.0,96,0.22,,---,0.30,VWS V14.01,2013-04-30 16:51:00,
2013-04-30 12:57:00,56.9,55.8,29.99,SW,217,5.0,24.0,96,0.22,,---,0.30,VWS V14.01,2013-04-30 16:57:00,
2013-04-30 13:02:00,57.0,55.9,29.99,South,190,11.0,24.0,96,0.22,,---,0.30,VWS V14.01,2013-04-30 17:02:00,
2013-04-30 13:07:00,57.1,56.0,29.99,SSW,194,6.0,11.0,96,0.07,,---,0.30,VWS V14.01,2013-04-30 17:07:00,
2013-04-30 13:12:00,57.2,56.4,29.99,South,186,9.0,14.0,97,0.07,,---,0.30,VWS V14.01,2013-04-30 17:12:00,
2013-04-30 13:17:00,57.4,56.6,29.99,SE,146,3.0,16.0,97,0.07,,---,0.30,VWS V14.01,2013-04-30 17:17:00,
2013-04-30 13:22:00,57.6,56.8,29.99,SSE,166,8.0,16.0,97,0.07,,---,0.30,VWS V14.01,2013-04-30 17:22:00,
2013-04-30 13:27:00,57.9,57.1,29.99,SSW,198,8.0,16.0,97,0.07,,---,0.30,VWS V14.01,2013-04-30 17:27:00,
2013-04-30 13:32:00,58.2,57.1,30.00,SSE,163,8.0,16.0,96,0.07,,---,0.30,VWS V14.01,2013-04-30 17:32:00,
2013-04-30 13:37:00,58.4,57.3,29.99,SE,139,7.0,16.0,96,0.07,,---,0.30,VWS V14.01,2013-04-30 17:37:00,
2013-04-30 13:42:00,58.7,57.6,29.99,South,174,14.0,18.0,96,0.07,,---,0.30,VWS V14.01,2013-04-30 17:42:00,
2013-04-30 13:47:00,59.1,58.0,29.98,SE,126,11.0,18.0,96,0.07,,---,0.30,VWS V14.01,2013-04-30 17:47:00,
2013-04-30 13:52:00,59.4,58.3,29.98,SE,141,12.0,18.0,96,0.07,,---,0.30,VWS V14.01,2013-04-30 17:52:00,
2013-04-30 13:58:00,59.7,58.6,29.98,SE,134,6.0,18.0,96,0.07,,---,0.30,VWS V14.01,2013-04-30 17:58:00,
2013-04-30 14:03:00,60.2,59.1,29.98,SSW,194,6.0,11.0,96,0.00,,---,0.30,VWS V14.01,2013-04-30 18:03:00,
2013-04-30 14:08:00,60.7,59.3,29.97,ESE,114,10.0,16.0,95,0.00,,---,0.30,VWS V14.01,2013-04-30 18:08:00,
2013-04-30 14:13:00,61.2,59.8,29.97,SSE,160,11.0,16.0,95,0.00,,---,0.30,VWS V14.01,2013-04-30 18:13:00,
2013-04-30 14:18:00,61.5,59.8,29.97,SSE,156,12.0,21.0,94,0.00,,---,0.30,VWS V14.01,2013-04-30 18:18:00,
2013-04-30 14:23:00,61.8,60.1,29.97,SSW,205,10.0,21.0,94,0.00,,---,0.30,VWS V14.01,2013-04-30 18:23:00,
2013-04-30 14:28:00,62.2,60.2,29.96,SSE,152,14.0,21.0,93,0.00,,---,0.30,VWS V14.01,2013-04-30 18:28:00,
2013-04-30 14:33:00,63.3,58.7,29.97,SSE,159,10.0,21.0,85,0.00,,---,0.30,VWS V14.01,2013-04-30 18:33:00,
2013-04-30 14:38:00,64.3,58.3,29.97,SSE,153,7.0,21.0,81,0.00,,---,0.30,VWS V14.01,2013-04-30 18:38:00,
2013-04-30 14:43:00,64.8,57.1,29.97,South,172,12.0,22.0,76,0.00,,---,0.30,VWS V14.01,2013-04-30 18:43:00,
2013-04-30 14:48:00,65.0,56.5,29.97,South,191,15.0,22.0,74,0.00,,---,0.30,VWS V14.01,2013-04-30 18:48:00,
2013-04-30 14:54:00,65.3,56.0,29.97,SSW,198,14.0,22.0,72,0.00,,---,0.30,VWS V14.01,2013-04-30 18:54:00,
2013-04-30 14:59:00,65.7,56.0,29.97,South,174,10.0,22.0,71,0.00,,---,0.30,VWS V14.01,2013-04-30 18:59:00,
2013-04-30 15:04:00,66.1,56.0,29.97,SSE,163,5.0,19.0,70,0.00,,---,0.30,VWS V14.01,2013-04-30 19:04:00,
2013-04-30 15:09:00,66.6,56.1,29.97,SE,136,10.0,19.0,69,0.00,,---,0.30,VWS V14.01,2013-04-30 19:09:00,
2013-04-30 15:14:00,66.9,56.0,29.97,SSE,147,9.0,19.0,68,0.00,,---,0.30,VWS V14.01,2013-04-30 19:14:00,
2013-04-30 15:19:00,67.1,56.2,29.97,SSE,156,7.0,19.0,68,0.00,,---,0.30,VWS V14.01,2013-04-30 19:19:00,
2013-04-30 15:24:00,67.6,56.7,29.97,SSW,208,9.0,19.0,68,0.00,,---,0.30,VWS V14.01,2013-04-30 19:24:00,
2013-04-30 15:29:00,67.8,56.0,29.97,SSE,149,8.0,19.0,66,0.00,,---,0.30,VWS V14.01,2013-04-30 19:29:00,
2013-04-30 15:34:00,68.1,55.9,29.97,SE,146,18.0,22.0,65,0.00,,---,0.30,VWS V14.01,2013-04-30 19:34:00,
2013-04-30 15:39:00,68.3,56.1,29.96,SSE,149,11.0,22.0,65,0.00,,---,0.30,VWS V14.01,2013-04-30 19:39:00,
2013-04-30 15:44:00,68.3,55.7,29.96,SSE,160,9.0,22.0,64,0.00,,---,0.30,VWS V14.01,2013-04-30 19:44:00,
2013-04-30 15:50:00,68.3,55.7,29.96,SSE,162,11.0,22.0,64,0.00,,---,0.30,VWS V14.01,2013-04-30 19:50:00,
2013-04-30 15:55:00,68.6,56.4,29.96,SSE,162,15.0,22.0,65,0.00,,---,0.30,VWS V14.01,2013-04-30 19:55:00,
2013-04-30 16:00:00,69.0,56.3,29.96,SSE,152,14.0,22.0,64,0.00,,---,0.30,VWS V14.01,2013-04-30 20:00:00,
2013-04-30 16:05:00,69.4,56.3,29.96,SE,136,10.0,16.0,63,0.00,,---,0.30,VWS V14.01,2013-04-30 20:05:00,
2013-04-30 16:10:00,69.7,56.1,29.96,SE,141,9.0,17.0,62,0.00,,---,0.30,VWS V14.01,2013-04-30 20:10:00,
2013-04-30 16:15:00,69.8,56.2,29.96,SSE,162,12.0,23.0,62,0.00,,---,0.30,VWS V14.01,2013-04-30 20:15:00,
2013-04-30 16:20:00,70.0,56.4,29.95,SE,138,11.0,23.0,62,0.00,,---,0.30,VWS V14.01,2013-04-30 20:20:00,
2013-04-30 16:25:00,70.4,56.8,29.95,ESE,108,13.0,23.0,62,0.00,,---,0.30,VWS V14.01,2013-04-30 20:25:00,
2013-04-30 16:30:00,70.9,56.8,29.96,SE,144,9.0,23.0,61,0.00,,---,0.30,VWS V14.01,2013-04-30 20:30:00,
2013-04-30 16:36:00,71.0,56.4,29.96,SSE,157,8.0,23.0,60,0.00,,---,0.30,VWS V14.01,2013-04-30 20:36:00,
2013-04-30 16:41:00,71.2,57.1,29.95,SSW,194,13.0,23.0,61,0.00,,---,0.30,VWS V14.01,2013-04-30 20:41:00,
2013-04-30 16:46:00,71.1,56.5,29.95,SE,134,13.0,23.0,60,0.00,,---,0.30,VWS V14.01,2013-04-30 20:46:00,
2013-04-30 16:51:00,71.3,57.2,29.95,SE,144,8.0,23.0,61,0.00,,---,0.30,VWS V14.01,2013-04-30 20:51:00,
2013-04-30 16:56:00,71.6,57.0,29.95,SE,139,13.0,23.0,60,0.00,,---,0.30,VWS V14.01,2013-04-30 20:56:00,
2013-04-30 17:01:00,71.8,57.2,29.95,SE,143,13.0,23.0,60,0.00,,---,0.30,VWS V14.01,2013-04-30 21:01:00,
2013-04-30 17:06:00,71.8,56.2,29.95,South,171,9.0,18.0,58,0.00,,---,0.30,VWS V14.01,2013-04-30 21:06:00,
2013-04-30 17:11:00,71.8,55.8,29.95,South,180,9.0,18.0,57,0.00,,---,0.30,VWS V14.01,2013-04-30 21:11:00,
2013-04-30 17:16:00,71.7,56.2,29.95,SE,139,19.0,22.0,58,0.00,,---,0.30,VWS V14.01,2013-04-30 21:16:00,
2013-04-30 17:21:00,71.7,56.2,29.95,SSE,155,8.0,22.0,58,0.00,,---,0.30,VWS V14.01,2013-04-30 21:21:00,
2013-04-30 17:26:00,71.8,56.2,29.95,SSE,155,7.0,22.0,58,0.00,,---,0.30,VWS V14.01,2013-04-30 21:26:00,
2013-04-30 17:31:00,72.0,56.0,29.95,SSE,153,16.0,22.0,57,0.00,,---,0.30,VWS V14.01,2013-04-30 21:31:00,
2013-04-30 17:37:00,72.0,56.0,29.95,SSW,195,14.0,22.0,57,0.00,,---,0.30,VWS V14.01,2013-04-30 21:37:00,
2013-04-30 17:42:00,72.0,56.4,29.95,SSE,157,8.0,22.0,58,0.00,,---,0.30,VWS V14.01,2013-04-30 21:42:00,
2013-04-30 17:47:00,72.1,56.5,29.95,South,181,13.0,22.0,58,0.00,,---,0.30,VWS V14.01,2013-04-30 21:47:00,
2013-04-30 17:52:00,72.2,56.6,29.95,SSW,198,7.0,25.0,58,0.00,,---,0.30,VWS V14.01,2013-04-30 21:52:00,
2013-04-30 17:57:00,72.3,56.7,29.95,SSW,204,13.0,25.0,58,0.00,,---,0.30,VWS V14.01,2013-04-30 21:57:00,
2013-04-30 18:02:00,72.2,57.1,29.95,ESE,118,10.0,12.0,59,0.00,,---,0.30,VWS V14.01,2013-04-30 22:02:00,
2013-04-30 18:07:00,72.4,56.8,29.95,SE,145,9.0,13.0,58,0.00,,---,0.30,VWS V14.01,2013-04-30 22:07:00,
2013-04-30 18:12:00,72.2,56.6,29.95,SE,142,8.0,24.0,58,0.00,,---,0.30,VWS V14.01,2013-04-30 22:12:00,
2013-04-30 18:17:00,72.2,57.1,29.95,SSE,160,14.0,24.0,59,0.00,,---,0.30,VWS V14.01,2013-04-30 22:17:00,
2013-04-30 18:22:00,72.1,57.0,29.95,SSE,158,13.0,24.0,59,0.00,,---,0.30,VWS V14.01,2013-04-30 22:22:00,
2013-04-30 18:28:00,72.1,56.5,29.96,SSW,194,13.0,24.0,58,0.00,,---,0.30,VWS V14.01,2013-04-30 22:28:00,
2013-04-30 18:33:00,72.1,57.0,29.96,South,173,10.0,24.0,59,0.00,,---,0.30,VWS V14.01,2013-04-30 22:33:00,
2013-04-30 18:38:00,72.1,56.5,29.96,South,173,14.0,24.0,58,0.00,,---,0.30,VWS V14.01,2013-04-30 22:38:00,
2013-04-30 18:43:00,72.0,56.9,29.96,South,186,10.0,24.0,59,0.00,,---,0.30,VWS V14.01,2013-04-30 22:43:00,
2013-04-30 18:48:00,72.2,57.1,29.96,South,174,13.0,24.0,59,0.00,,---,0.30,VWS V14.01,2013-04-30 22:48:00,
2013-04-30 18:53:00,72.1,57.0,29.96,SE,141,7.0,24.0,59,0.00,,---,0.30,VWS V14.01,2013-04-30 22:53:00,
2013-04-30 18:58:00,72.2,57.1,29.96,South,188,14.0,24.0,59,0.00,,---,0.30,VWS V14.01,2013-04-30 22:58:00,
2013-04-30 19:03:00,72.1,56.5,29.96,SE,145,7.0,16.0,58,0.00,,---,0.30,VWS V14.01,2013-04-30 23:03:00,
2013-04-30 19:08:00,71.7,56.6,29.96,South,173,8.0,16.0,59,0.00,,---,0.30,VWS V14.01,2013-04-30 23:08:00,
2013-04-30 19:14:00,71.6,56.5,29.96,SE,145,7.0,16.0,59,0.00,,---,0.30,VWS V14.01,2013-04-30 23:14:00,
2013-04-30 19:19:00,71.5,56.4,29.96,SE,141,14.0,16.0,59,0.00,,---,0.30,VWS V14.01,2013-04-30 23:19:00,
2013-04-30 19:24:00,71.4,56.3,29.96,SSE,166,9.0,18.0,59,0.00,,---,0.30,VWS V14.01,2013-04-30 23:24:00,
2013-04-30 19:29:00,71.2,56.2,29.97,SSE,159,11.0,18.0,59,0.00,,---,0.30,VWS V14.01,2013-04-30 23:29:00,
2013-04-30 19:34:00,71.1,56.5,29.97,South,172,10.0,18.0,60,0.00,,---,0.30,VWS V14.01,2013-04-30 23:34:00,
2013-04-30 19:39:00,70.8,56.2,29.97,South,178,6.0,18.0,60,0.00,,---,0.30,VWS V14.01,2013-04-30 23:39:00,
2013-04-30 19:44:00,70.6,56.5,29.97,SSE,160,6.0,18.0,61,0.00,,---,0.30,VWS V14.01,2013-04-30 23:44:00,
2013-04-30 19:49:00,70.4,56.3,29.97,SSE,149,10.0,18.0,61,0.00,,---,0.30,VWS V14.01,2013-04-30 23:49:00,
2013-04-30 19:54:00,70.1,56.5,29.98,SE,141,7.0,18.0,62,0.00,,---,0.30,VWS V14.01,2013-04-30 23:54:00,
2013-04-30 20:00:00,69.9,56.3,29.98,ESE,118,5.0,18.0,62,0.00,,---,0.30,VWS V14.01,2013-05-01 00:00:00,
2013-04-30 20:05:00,69.7,56.1,29.98,SE,142,7.0,11.0,62,0.00,,---,0.30,VWS V14.01,2013-05-01 00:05:00,
2013-04-30 20:10:00,69.4,56.3,29.98,SE,124,7.0,11.0,63,0.00,,---,0.30,VWS V14.01,2013-05-01 00:10:00,
2013-04-30 20:15:00,69.1,56.4,29.98,SSE,165,7.0,12.0,64,0.00,,---,0.30,VWS V14.01,2013-05-01 00:15:00,
2013-04-30 20:20:00,68.7,56.0,29.98,SE,141,5.0,12.0,64,0.00,,---,0.30,VWS V14.01,2013-05-01 00:20:00,
2013-04-30 20:25:00,68.4,56.2,29.99,ESE,106,6.0,12.0,65,0.00,,---,0.30,VWS V14.01,2013-05-01 00:25:00,
2013-04-30 20:30:00,68.1,55.9,29.99,SE,134,4.0,12.0,65,0.00,,---,0.30,VWS V14.01,2013-05-01 00:30:00,
2013-04-30 20:35:00,67.9,56.1,29.99,SE,132,4.0,12.0,66,0.00,,---,0.30,VWS V14.01,2013-05-01 00:35:00,
2013-04-30 20:40:00,67.5,56.2,29.99,SE,136,5.0,12.0,67,0.00,,---,0.30,VWS V14.01,2013-05-01 00:40:00,
2013-04-30 20:45:00,67.1,55.8,29.99,SE,141,3.0,12.0,67,0.00,,---,0.30,VWS V14.01,2013-05-01 00:45:00,
2013-04-30 20:50:00,66.9,56.0,29.99,ESE,115,3.0,12.0,68,0.00,,---,0.30,VWS V14.01,2013-05-01 00:50:00,
2013-04-30 20:56:00,66.5,56.0,30.00,SE,132,3.0,12.0,69,0.00,,---,0.30,VWS V14.01,2013-05-01 00:56:00,
2013-04-30 21:01:00,66.2,55.7,30.00,ESE,118,4.0,12.0,69,0.00,,---,0.30,VWS V14.01,2013-05-01 01:01:00,
2013-04-30 21:06:00,66.0,56.0,30.00,SE,132,3.0,8.0,70,0.00,,---,0.30,VWS V14.01,2013-05-01 01:06:00,
2013-04-30 21:11:00,65.8,55.8,30.00,SE,124,3.0,8.0,70,0.00,,---,0.30,VWS V14.01,2013-05-01 01:11:00,
2013-04-30 21:16:00,65.4,55.8,30.00,SE,125,3.0,8.0,71,0.00,,---,0.30,VWS V14.01,2013-05-01 01:16:00,
2013-04-30 21:21:00,65.1,55.9,30.01,SSE,149,5.0,8.0,72,0.00,,---,0.30,VWS V14.01,2013-05-01 01:21:00,
2013-04-30 21:26:00,64.8,55.6,30.00,ESE,114,6.0,8.0,72,0.00,,---,0.30,VWS V14.01,2013-05-01 01:26:00,
2013-04-30 21:31:00,64.6,55.8,30.01,SE,124,2.0,8.0,73,0.00,,---,0.30,VWS V14.01,2013-05-01 01:31:00,
2013-04-30 21:36:00,64.4,55.6,30.01,SE,138,4.0,9.0,73,0.00,,---,0.30,VWS V14.01,2013-05-01 01:36:00,
2013-04-30 21:41:00,64.2,55.4,30.01,SSE,149,4.0,9.0,73,0.00,,---,0.30,VWS V14.01,2013-05-01 01:41:00,
2013-04-30 21:46:00,64.0,55.6,30.01,SE,145,5.0,9.0,74,0.00,,---,0.30,VWS V14.01,2013-05-01 01:46:00,
2013-04-30 21:52:00,63.8,55.4,30.01,SE,134,5.0,9.0,74,0.00,,---,0.30,VWS V14.01,2013-05-01 01:52:00,
2013-04-30 21:57:00,63.5,55.4,30.02,ESE,102,3.0,10.0,75,0.00,,---,0.30,VWS V14.01,2013-05-01 01:57:00,
2013-04-30 22:02:00,63.3,55.2,30.02,SE,138,5.0,5.0,75,0.00,,---,0.30,VWS V14.01,2013-05-01 02:02:00,
2013-04-30 22:07:00,63.1,55.1,30.02,SSE,152,3.0,7.0,75,0.00,,---,0.30,VWS V14.01,2013-05-01 02:07:00,
2013-04-30 22:12:00,63.0,55.0,30.02,SE,136,4.0,7.0,75,0.00,,---,0.30,VWS V14.01,2013-05-01 02:12:00,
2013-04-30 22:17:00,63.0,55.0,30.02,SE,126,3.0,7.0,75,0.00,,---,0.30,VWS V14.01,2013-05-01 02:17:00,
2013-04-30 22:22:00,62.8,55.1,30.02,SE,139,2.0,7.0,76,0.00,,---,0.30,VWS V14.01,2013-05-01 02:22:00,
2013-04-30 22:27:00,62.7,55.0,30.03,SE,124,3.0,7.0,76,0.00,,---,0.30,VWS V14.01,2013-05-01 02:27:00,
2013-04-30 22:32:00,62.6,54.9,30.03,SE,142,2.0,7.0,76,0.00,,---,0.30,VWS V14.01,2013-05-01 02:32:00,
2013-04-30 22:37:00,62.5,54.8,30.03,SSE,156,2.0,10.0,76,0.00,,---,0.30,VWS V14.01,2013-05-01 02:37:00,
2013-04-30 22:42:00,62.4,54.8,30.03,SE,138,2.0,10.0,76,0.00,,---,0.30,VWS V14.01,2013-05-01 02:42:00,
2013-04-30 22:48:00,62.3,54.7,30.03,SE,146,3.0,10.0,76,0.00,,---,0.30,VWS V14.01,2013-05-01 02:48:00,
2013-04-30 22:53:00,62.2,54.5,30.03,ESE,122,4.0,10.0,76,0.00,,---,0.30,VWS V14.01,2013-05-01 02:53:00,
2013-04-30 22:58:00,62.2,54.5,30.03,SSE,166,4.0,10.0,76,0.00,,---,0.30,VWS V14.01,2013-05-01 02:58:00,
2013-04-30 23:03:00,62.1,54.8,30.03,SSE,149,1.0,5.0,77,0.00,,---,0.30,VWS V14.01,2013-05-01 03:03:00,
2013-04-30 23:08:00,62.1,54.8,30.03,SE,128,3.0,7.0,77,0.00,,---,0.30,VWS V14.01,2013-05-01 03:08:00,
2013-04-30 23:13:00,61.9,54.6,30.03,SSE,156,4.0,7.0,77,0.00,,---,0.30,VWS V14.01,2013-05-01 03:13:00,
2013-04-30 23:18:00,62.0,54.7,30.03,SSE,157,2.0,7.0,77,0.00,,---,0.30,VWS V14.01,2013-05-01 03:18:00,
2013-04-30 23:23:00,61.9,54.6,30.03,SSE,153,4.0,7.0,77,0.00,,---,0.30,VWS V14.01,2013-05-01 03:23:00,
2013-04-30 23:28:00,61.8,54.5,30.03,SE,146,2.0,7.0,77,0.00,,---,0.30,VWS V14.01,2013-05-01 03:28:00,
2013-04-30 23:33:00,61.7,54.4,30.03,SE,145,7.0,8.0,77,0.00,,---,0.30,VWS V14.01,2013-05-01 03:33:00,
2013-04-30 23:39:00,61.6,54.3,30.03,SSE,150,3.0,8.0,77,0.00,,---,0.30,VWS V14.01,2013-05-01 03:39:00,
2013-04-30 23:44:00,61.5,54.6,30.03,SSE,156,3.0,8.0,78,0.00,,---,0.30,VWS V14.01,2013-05-01 03:44:00,
2013-04-30 23:49:00,61.3,54.4,30.03,SE,146,2.0,8.0,78,0.00,,---,0.30,VWS V14.01,2013-05-01 03:49:00,
2013-04-30 23:54:00,61.1,54.2,30.03,SE,146,2.0,8.0,78,0.00,,---,0.30,VWS V14.01,2013-05-01 03:54:00,
2013-04-30 23:59:00,60.9,54.3,30.04,SE,128,5.0,8.0,79,0.00,,---,0.30,VWS V14.01,2013-05-01 03:59:00,